Location: Darlington Observatory
(36.4817°N, 105.8156°W)
Time: 02:03:39
(UTC-06:00)

Daily predictions for brighter satellites

Satellite Brightness Start Highest point End
(mag) Time Altitude Azimuth Time Altitude Azimuth Time Altitude Azimuth
Cosmos 2219 Rocket 4.1 00:28:55 26° NNW 00:28:55 26° NNW 00:31:44 10° N
Cosmos 2333 Rocket 4.2 00:39:36 25° NNW 00:39:36 25° NNW 00:42:13 10° N
CENTAUR R/B 3.9 00:31:49 10° NNW 00:39:08 43° NE 00:39:08 43° NE
USA 215 4.3 00:42:32 40° NNE 00:42:32 40° NNE 00:47:44 10° NNW
Cosmos 2237 Rocket 4.3 01:08:31 22° NNW 01:08:31 22° NNW 01:10:55 10° N
SL-16 R/B 4.3 02:13:08 19° NNW 02:13:08 19° NNW 02:15:35 10° N
CENTAUR R/B 4.3 02:22:31 10° NW 02:26:15 29° WNW 02:26:15 29° WNW
Cosmos 1943 Rocket 3.2 02:47:58 10° N 02:52:01 41° NNE 02:52:01 41° NNE
Cosmos 2369 Rocket 3.7 02:52:08 10° NNW 02:54:47 29° NNW 02:54:47 29° NNW
SL-16 R/B 3.0 02:57:55 53° E 02:58:14 54° ENE 03:04:16 10° N
ADEOS Rocket 3.7 02:57:34 10° N 03:01:13 42° N 03:01:13 42° N
Cosmos 1943 4.3 03:07:08 36° NNW 03:07:08 36° NNW 03:10:54 10° N
Resurs 1-4 Rocket 2.9 03:05:20 10° NNE 03:09:20 48° NE 03:09:20 48° NE
Cosmos 1821 Rocket 4.1 03:13:59 74° NNE 03:13:59 74° NNE 03:19:42 10° N
CZ-2D R/B 2.7 03:08:57 10° NNE 03:13:14 53° NE 03:13:14 53° NE
CZ-3A R/B 3.5 03:06:22 10° NW 03:14:53 66° NE 03:20:14 10° SE
Cosmos 540 Rocket 4.1 03:22:43 51° NE 03:22:43 51° NE 03:26:46 10° NNE
Cosmos 1934 Rocket 3.8 03:32:04 86° NE 03:32:04 86° NE 03:38:03 10° N
Cosmos 1605 Rocket 4.1 03:40:54 57° SSE 03:42:10 73° E 03:48:33 10° N
Cosmos 1726 4.0 03:45:05 27° ENE 03:45:05 27° ENE 03:47:48 10° NNE
Kakehashi 4.4 03:47:15 36° SSE 03:47:15 36° SSE 03:52:40 10° E
MOS 1 Rocket 4.0 03:43:38 10° N 03:46:40 44° N 03:46:40 44° N
COSMOS 2406 3.3 03:50:49 63° SSE 03:51:28 69° ESE 03:57:08 10° NNE
Meteor 2-1 Rocket 4.4 03:53:39 56° WNW 03:53:39 56° WNW 03:58:44 10° N
ARIANE 5 R/B 2.9 03:58:22 10° N 04:03:07 48° WNW 04:03:07 48° WNW
USA 229 DEB 4.3 03:57:11 10° NNW 04:04:18 60° NE 04:11:31 10° SE
USA 229 4.3 03:57:18 10° NNW 04:04:24 59° NE 04:11:36 10° SE
ADEOS II 3.5 04:00:09 10° NNE 04:04:52 33° E 04:08:28 15° SSE
BREEZE M DEB (TANK) 4.0 04:06:43 17° NNW 04:09:20 50° NE 04:19:41 10° ESE
Cosmos 1315 Rocket 3.8 04:08:51 10° N 04:12:45 44° ENE 04:14:44 24° SE
Cosmos 1300 3.2 04:16:33 50° SE 04:17:02 54° E 04:20:46 10° NNE
SL-27 R/B 3.1 04:17:23 49° E 04:17:23 49° E 04:20:22 10° NNE
Cosmos 1666 Rocket 3.7 04:17:10 10° N 04:21:35 71° E 04:23:45 29° SSE
Cosmos 2285 Rocket 3.9 04:19:51 43° SSW 04:22:03 77° WNW 04:28:28 10° NNE
ADEOS 4.2 04:18:48 10° N 04:23:32 36° WNW 04:23:50 36° WNW
Cosmos 1805 Rocket 3.4 04:19:29 10° NNW 04:23:53 67° W 04:24:05 66° WSW
Cosmos 1447 Rocket 4.4 04:18:22 10° N 04:24:34 89° W 04:29:48 15° S
Cosmos 2221 3.8 04:28:12 27° NW 04:28:12 27° NW 04:31:10 10° NNW
CZ-4B R/B 4.4 04:25:01 10° NNE 04:29:11 39° E 04:32:47 14° SSE
Okean O Rocket 3.2 04:27:01 10° NNE 04:31:01 33° E 04:34:59 10° SSE
Meteor 2-10 4.4 04:28:39 21° S 04:32:34 72° E 04:38:14 10° NNE
PSLV R/B 4.3 04:33:15 35° NNW 04:33:34 36° N 04:36:38 10° ENE
Tiangong 2 3.6 04:35:14 13° SE 04:35:19 13° SE 04:36:58 10° ESE
Cosmos 1943 Rocket 4.2 04:32:50 10° WNW 04:33:27 12° WNW 04:33:27 12° WNW
USA 234 4.1 04:35:46 10° ENE 04:41:57 43° SE 04:46:55 16° SSW
SL-16 R/B 3.8 04:43:01 21° W 04:43:01 21° W 04:46:42 10° NW
Cosmos 773 Rocket 4.3 04:41:51 20° S 04:45:31 68° ESE 04:50:47 10° NNE
Cosmos 2173 Rocket 4.0 04:41:21 15° S 04:46:43 90° ESE 04:53:05 10° N
MOS 1-B 4.3 04:41:01 10° NNE 04:46:51 82° WNW 04:51:00 20° SSW
Cosmos 1400 Rocket 4.1 04:44:43 10° NNW 04:46:58 24° WNW 04:46:58 24° WNW
Cosmos 1656 Rocket 4.1 04:43:35 10° NW 04:48:48 38° WSW 04:51:42 23° SSW
Cosmos 292 Rocket 4.1 04:47:23 36° WSW 04:48:50 48° WNW 04:53:30 10° N
Cosmos 2082 Rocket 3.8 04:44:52 10° SSE 04:49:45 32° ESE 04:54:40 10° NE
Resurs 1-4 Rocket 3.9 04:46:54 10° NNW 04:49:49 15° WNW 04:50:25 15° WNW
UNKNOWN OBJECT B 4.4 04:48:31 10° NNW 04:51:33 21° WNW 04:51:33 21° WNW
ASTRO E2 4.3 04:52:30 20° S 04:52:30 20° S 04:54:48 10° SSE
Cosmos 1151 Rocket 3.5 04:48:22 11° S 04:52:28 58° E 04:56:41 10° NNE
CZ-2D R/B 3.9 04:50:53 10° NNW 04:53:43 15° WNW 04:54:34 14° WNW
Meteor 2-2 Rocket 4.4 04:57:37 17° SSW 05:02:13 65° W 05:08:13 10° N
Sich 1 3.6 04:58:28 10° NNW 05:02:29 36° W 05:04:12 26° SW
Cosmos 2228 Rocket 3.1 05:00:19 20° SSW 05:03:18 64° W 05:07:45 10° N
PAYLOAD B 4.4 05:01:03 10° NNE 05:06:41 80° ESE 05:12:15 10° S
Meteor 1-27 4.4 05:01:44 10° S 05:07:25 77° E 05:13:03 10° NNE
CZ-4B R/B 3.4 05:02:17 10° NNE 05:07:46 71° ESE 05:13:07 10° S
Hubble Space Telescope 2.5 05:07:24 17° SSW 05:08:54 20° SSE 05:11:57 10° ESE
Cosmos 1459 Rocket 4.1 05:06:48 14° SSW 05:12:05 54° W 05:18:03 10° N
Cosmos 1470 Rocket 3.4 05:09:30 10° NNW 05:13:48 72° W 05:18:06 10° S
Landsat 4 4.1 05:11:02 10° SSE 05:14:43 65° ENE 05:18:26 10° N
Cosmos 1892 3.1 05:11:46 10° N 05:15:34 66° E 05:19:22 10° SSE
Meteor PRIRODA 4.5 05:12:01 10° NNE 05:15:35 50° E 05:19:08 10° S
IRS-1C Rocket 4.2 05:12:05 10° NNE 05:17:22 81° ESE 05:22:38 10° S
Shenzhou-11 Module 2.6 05:17:42 22° SW 05:19:21 48° SSE 05:22:20 10° ENE
Cosmos 1726 4.0 05:19:43 14° WNW 05:19:56 14° WNW 05:21:58 10° NW
Cosmos 2061 Rocket 4.2 05:13:42 10° SSW 05:19:58 55° W 05:26:16 10° N
BREEZE M DEB (TANK) 2.3 05:18:04 10° NW 05:20:09 64° NE 05:23:27 10° ESE
Cosmos 1515 Rocket 3.8 05:16:48 14° SSW 05:20:19 48° W 05:24:36 10° N
Cosmos 1633 Rocket 4.2 05:24:28 10° NW 05:27:54 23° W 05:30:41 13° SW
ERBS 2.7 05:26:25 10° NW 05:29:40 40° SW 05:32:53 10° SSE
In-Cosmos 22 Rocket 4.4 05:25:37 10° NNW 05:30:42 44° W 05:35:42 10° SSW
Cosmos 923 Rocket 4.0 05:27:33 10° SSW 05:32:45 76° WNW 05:37:59 10° NNE
OE (NEXTSAT) 4.5 05:38:49 13° WSW 05:41:59 73° NNW 05:45:34 10° NE
ADEOS II 3.1 05:40:03 10° NNW 05:44:25 27° WNW 05:48:46 10° SW
Cosmos 2233 Rocket 4.1 05:38:47 10° S 05:44:55 80° E 05:51:03 10° N
Cosmos 1656 4.1 05:39:43 10° NNW 05:45:26 72° ENE 05:51:06 10° SSE
Cosmos 2016 Rocket 4.5 05:43:09 10° SW 05:48:50 39° WNW 05:54:29 10° N
Cosmos 1680 Rocket 3.6 05:47:27 10° SSW 05:52:40 65° WNW 05:57:58 10° NNE
Cosmos 1833 Rocket 2.7 05:47:17 10° SSW 05:52:55 72° WNW 05:58:35 10° NNE
EO 1 Del DPAF 3.2 05:53:05 10° SSE 05:56:55 84° W 06:00:47 10° NNW
Cosmos 2112 Rocket 4.1 05:53:16 10° SSW 05:58:32 68° WNW 06:03:52 10° NNE
CZ-4B R/B 3.9 05:55:15 10° N 05:59:01 53° WNW 06:02:38 10° SSW
NOAA 6 4.5 05:54:09 10° NNE 05:59:16 68° ESE 06:04:23 10° S
Cosmos 1725 Rocket 4.3 05:54:06 10° SSW 05:59:59 46° W 06:05:54 10° N
Okean-O 2.8 05:55:47 10° NNE 06:00:14 81° E 06:04:40 10° S
NOSS 3-1 (A) 4.2 05:52:48 10° NW 06:00:36 71° WSW 06:09:03 10° SSE
